DG2GG-6 Weather Reports


Display with metric or nautical units.
time (UTC)temp
F
wind
direction
speed
MPH
gust
MPH
rain 1hr
in
rain 24hr
in
rain mn
in
humidity
%
barometer
mb
20260507135705 50 0 1.0 7.0 0.00 0.15 0.04 85 1014.6
20260507135205 50 347 2.0 7.0 0.00 0.15 0.04 86 1014.7
20260507134706 50 330 2.0 7.0 0.00 0.15 0.04 85 1014.7
20260507134205 51 354 2.0 5.0 0.00 0.15 0.04 85 1014.7
20260507133705 51 321 1.0 5.0 0.00 0.15 0.04 85 1014.7
20260507131205 50 60 2.0 5.0 0.00 0.16 0.04 85 1014.6
20260507130705 50 39 2.0 5.0 0.00 0.16 0.04 85 1014.6
20260507130205 50 12 1.0 4.0 0.00 0.16 0.04 86 1014.7
20260507125705 50 320 2.0 3.0 0.00 0.16 0.04 86 1014.6
20260507124705 50 322 0.0 3.0 0.00 0.16 0.04 85 1014.7
20260507124205 50 25 0.0 4.0 0.00 0.16 0.04 85 1014.7
20260507123205 51 62 1.0 4.0 0.00 0.16 0.04 85 1014.6
20260507122706 51 60 0.0 2.0 0.00 0.16 0.04 85 1014.6
20260507122205 50 21 0.0 2.0 0.00 0.16 0.04 87 1014.6
20260507121705 50 327 0.0 2.0 0.00 0.16 0.04 87 1014.5
20260507121205 49 290 0.0 4.0 0.00 0.16 0.04 88 1014.5
20260507120705 49 298 1.0 4.0 0.00 0.17 0.04 89 1014.6
20260507120205 49 316 1.0 4.0 0.00 0.17 0.04 88 1014.6
20260507115705 49 1 2.0 4.0 0.00 0.17 0.04 88 1014.5
20260507114705 49 1 1.0 4.0 0.00 0.17 0.04 87 1014.6
20260507114205 49 13 1.0 5.0 0.00 0.17 0.04 89 1014.6
20260507113705 49 283 1.0 5.0 0.00 0.17 0.04 88 1014.6
20260507113205 49 288 2.0 5.0 0.00 0.18 0.04 88 1014.5
20260507112705 49 1 2.0 5.0 0.00 0.18 0.04 88 1014.5
20260507112205 49 311 2.0 5.0 0.00 0.18 0.04 88 1014.5
20260507111705 49 283 2.0 5.0 0.00 0.18 0.04 88 1014.5
20260507111205 50 359 2.0 5.0 0.00 0.18 0.04 88 1014.4
20260507110705 50 329 2.0 4.0 0.00 0.18 0.04 88 1014.4
20260507105705 49 326 1.0 3.0 0.00 0.18 0.04 89 1014.4
20260507105206 49 271 0.0 4.0 0.00 0.19 0.04 89 1014.4
20260507104705 49 284 0.0 6.0 0.00 0.20 0.04 89 1014.5
20260507104205 48 148 2.0 6.0 0.00 0.20 0.04 88 1014.4
20260507103705 48 232 3.0 6.0 0.00 0.20 0.04 88 1014.5
20260507103205 48 298 2.0 6.0 0.00 0.20 0.04 90 1014.5
20260507102706 48 260 2.0 6.0 0.00 0.25 0.04 91 1014.5
20260507102205 48 295 3.0 7.0 0.00 0.31 0.04 91 1014.5
20260507101705 48 333 3.0 7.0 0.00 0.32 0.04 91 1014.4
20260507101205 48 313 3.0 7.0 0.00 0.32 0.04 91 1014.4
20260507100705 48 251 3.0 5.0 0.00 0.32 0.04 91 1014.3
20260507100205 48 288 3.0 5.0 0.00 0.32 0.04 91 1014.3
20260507095705 48 290 3.0 5.0 0.00 0.32 0.04 90 1014.3
20260507094705 48 297 2.0 5.0 0.00 0.32 0.04 91 1014.3
20260507094205 48 245 1.0 4.0 0.00 0.32 0.04 91 1014.2
20260507093205 47 250 1.0 6.0 0.00 0.32 0.04 92 1014.1
20260507092705 47 250 2.0 6.0 0.00 0.32 0.04 92 1014.2
20260507091705 47 274 1.0 4.0 0.00 0.32 0.04 93 1014.2
20260507090705 47 269 1.0 4.0 0.00 0.32 0.04 92 1014.0
20260507090205 47 229 1.0 4.0 0.00 0.32 0.04 92 1014.0
20260507085705 47 288 1.0 4.0 0.00 0.32 0.04 93 1014.0
20260507085205 47 298 1.0 4.0 0.00 0.32 0.04 93 1014.0
20260507084705 47 268 1.0 4.0 0.00 0.32 0.04 93 1013.9
20260507084205 47 238 1.0 4.0 0.00 0.32 0.04 92 1013.8
20260507083705 46 248 2.0 5.0 0.00 0.32 0.04 92 1013.8
20260507082705 46 331 3.0 5.0 0.00 0.32 0.04 92 1013.8
20260507082205 46 281 2.0 5.0 0.00 0.32 0.04 93 1013.8
20260507081205 46 264 2.0 5.0 0.00 0.32 0.04 93 1013.7
20260507080205 47 191 3.0 6.0 0.00 0.32 0.04 93 1013.6
20260507075705 47 204 2.0 5.0 0.00 0.32 0.04 93 1013.6
20260507075205 47 224 2.0 5.0 0.00 0.32 0.04 93 1013.4
20260507074705 47 198 2.0 5.0 0.00 0.32 0.04 93 1013.4
20260507074205 47 224 1.0 5.0 0.00 0.32 0.04 92 1013.4
20260507073705 47 271 1.0 5.0 0.00 0.32 0.04 92 1013.2
20260507073205 47 120 1.0 5.0 0.00 0.32 0.04 92 1013.2
20260507072705 47 275 2.0 5.0 0.00 0.32 0.04 93 1013.2
20260507072205 47 196 1.0 4.0 0.00 0.32 0.04 94 1013.3
20260507070705 46 314 1.0 2.0 0.00 0.32 0.04 95 1013.1
20260507070205 46 314 0.0 3.0 0.00 0.32 0.04 95 1013.1
20260507065705 46 289 0.0 3.0 0.00 0.32 0.04 95 1013.1
20260507065205 46 305 1.0 3.0 0.00 0.32 0.04 95 1013.1
20260507064705 46 315 1.0 3.0 0.00 0.32 0.04 96 1013.0
20260507064206 45 314 1.0 3.0 0.00 0.32 0.04 95 1013.0
20260507063705 45 232 1.0 3.0 0.00 0.32 0.04 96 1013.0
20260507063206 45 288 0.0 3.0 0.00 0.32 0.04 96 1013.0
20260507062705 45 281 1.0 3.0 0.00 0.32 0.04 96 1013.0
20260507062206 45 281 1.0 3.0 0.00 0.32 0.04 96 1013.0
20260507061706 45 270 1.0 3.0 0.00 0.32 0.04 96 1012.9
20260507061205 45 314 1.0 3.0 0.00 0.32 0.04 96 1012.9
20260507060705 45 276 1.0 3.0 0.00 0.32 0.04 96 1012.8
20260507060205 45 276 1.0 3.0 0.00 0.32 0.04 96 1012.8
20260507055705 45 293 1.0 3.0 0.00 0.32 0.04 96 1012.8
20260507055204 44 307 1.0 3.0 0.00 0.32 0.04 96 1012.8
20260507054705 44 285 0.0 1.0 0.00 0.32 0.04 96 1012.8
20260507053704 44 267 0.0 3.0 0.00 0.32 0.04 96 1012.6
20260507052205 44 248 1.0 3.0 0.00 0.32 0.04 96 1012.4
20260507051705 44 235 0.0 2.0 0.01 0.32 0.04 96 1012.4
20260507051205 44 276 0.0 3.0 0.01 0.32 0.04 96 1012.2
20260507050706 44 254 1.0 3.0 0.01 0.32 0.04 96 1012.2
20260507050205 43 251 1.0 3.0 0.01 0.32 0.04 96 1012.1
20260507045205 43 309 0.0 1.0 0.01 0.32 0.04 96 1012.0
20260507044705 43 238 0.0 1.0 0.01 0.32 0.04 96 1011.9
20260507044205 43 238 0.0 1.0 0.01 0.32 0.04 96 1011.9
20260507043705 43 238 0.0 1.0 0.01 0.32 0.04 96 1011.9
20260507043205 43 238 0.0 1.0 0.01 0.32 0.04 96 1011.9
20260507042705 43 238 0.0 0.0 0.02 0.32 0.04 96 1011.8
20260507042205 43 238 0.0 0.0 0.02 0.32 0.04 96 1011.8
20260507041705 43 238 0.0 0.0 0.01 0.31 0.03 96 1011.8
20260507041205 43 238 0.0 0.0 0.01 0.31 0.03 96 1011.8
20260507035204 44 238 0.0 1.0 0.02 0.31 0.03 95 1011.6
20260507034705 44 238 0.0 1.0 0.02 0.31 0.03 95 1011.6
20260507034205 44 238 0.0 2.0 0.02 0.31 0.03 95 1011.6
20260507033205 44 212 0.0 2.0 0.02 0.31 0.02 95 1011.6
20260507032705 44 251 0.0 1.0 0.02 0.31 0.02 95 1011.5
20260507032205 44 251 0.0 2.0 0.02 0.31 0.02 95 1011.5
20260507031205 44 283 0.0 1.0 0.02 0.31 0.02 95 1011.4
20260507030205 44 283 0.0 0.0 0.02 0.30 0.02 95 1011.4
20260507025705 44 283 0.0 1.0 0.02 0.30 0.02 95 1011.3
20260507024205 44 283 0.0 0.0 0.02 0.30 0.02 95 1011.3
20260507023705 44 283 0.0 2.0 0.01 0.29 0.01 95 1011.3
20260507023205 44 283 0.0 2.0 0.01 0.29 0.01 94 1011.3
20260507022205 44 239 0.0 3.0 0.00 0.28 0.00 94 1011.2
20260507021705 44 239 0.0 3.0 0.00 0.28 0.00 94 1011.2
20260507021204 44 239 1.0 4.0 0.00 0.28 0.00 94 1011.1
20260507020705 44 242 1.0 4.0 0.00 0.28 0.00 94 1011.1
20260507020205 44 228 2.0 4.0 0.00 0.28 0.00 94 1010.9
20260507015705 44 235 1.0 4.0 0.00 0.28 0.00 94 1010.9
20260507015205 44 219 1.0 5.0 0.00 0.28 0.00 94 1010.8
20260507014705 44 225 1.0 5.0 0.00 0.28 0.00 94 1010.8
20260507014205 44 221 2.0 5.0 0.00 0.28 0.00 94 1010.8
20260507013205 44 225 1.0 2.0 0.00 0.28 0.00 93 1010.7
20260507012205 44 244 0.0 3.0 0.00 0.28 0.00 92 1010.7
20260507011205 44 242 1.0 6.0 0.00 0.28 0.00 91 1010.7
20260507010705 44 245 3.0 6.0 0.00 0.28 0.00 91 1010.7
20260507010205 44 231 2.0 8.0 0.00 0.28 0.00 91 1010.6
20260507005705 44 217 3.0 8.0 0.00 0.28 0.00 91 1010.6
20260507005205 44 245 4.0 9.0 0.00 0.28 0.00 91 1010.6
20260507004705 44 218 4.0 9.0 0.00 0.28 0.00 91 1010.6
20260507003705 44 203 2.0 5.0 0.00 0.28 0.00 92 1010.6
20260507002705 43 270 1.0 6.0 0.00 0.28 0.00 92 1010.5
20260507002205 43 300 2.0 5.0 0.00 0.28 0.00 92 1010.5
20260507001705 43 260 1.0 5.0 0.00 0.28 0.00 92 1010.5
20260507001233 44 229 1.0 5.0 0.00 0.28 0.00 92 1010.5
20260507000705 43 250 1.0 5.0 0.00 0.28 0.00 92 1010.6
20260507000205 44 217 0.0 4.0 0.00 0.28 0.00 92 1010.6
20260506235705 44 236 1.0 4.0 0.00 0.28 0.00 92 1010.6
20260506234705 44 188 0.0 5.0 0.00 0.28 0.00 91 1010.6
20260506233704 44 207 1.0 6.0 0.00 0.28 0.00 91 1010.6
20260506233205 44 213 2.0 8.0 0.00 0.28 0.00 91 1010.5
20260506232706 44 233 3.0 10.0 0.00 0.28 0.00 91 1010.5
20260506231705 44 240 4.0 10.0 0.00 0.28 0.00 91 1010.5
20260506231205 44 264 4.0 12.0 0.00 0.28 0.00 91 1010.5
20260506230705 44 231 4.0 12.0 0.00 0.28 0.00 91 1010.6
20260506230205 44 260 3.0 12.0 0.00 0.28 0.00 91 1010.7
20260506225705 44 205 4.0 10.0 0.00 0.28 0.00 91 1010.6
20260506225205 44 257 5.0 10.0 0.00 0.28 0.00 91 1010.6
20260506224205 44 179 5.0 10.0 0.00 0.28 0.00 92 1010.7
20260506223705 44 214 4.0 10.0 0.00 0.28 0.00 92 1010.8
20260506223205 44 269 3.0 9.0 0.00 0.28 0.00 92 1010.7
20260506222705 44 243 4.0 9.0 0.00 0.28 0.00 91 1010.7
20260506221705 44 219 3.0 7.0 0.00 0.28 0.00 91 1010.7
20260506221205 44 287 3.0 6.0 0.00 0.28 0.00 92 1010.8
20260506220705 44 245 2.0 6.0 0.00 0.28 0.00 92 1010.8
20260506220205 44 235 1.0 3.0 0.00 0.28 0.28 92 1010.8
20260506215705 45 266 1.0 3.0 0.00 0.28 0.28 92 1010.7
20260506214706 45 258 2.0 5.0 0.00 0.28 0.28 92 1010.7
20260506214205 45 221 2.0 8.0 0.00 0.28 0.28 92 1010.6
20260506213705 45 233 3.0 8.0 0.00 0.28 0.28 92 1010.6
20260506213205 45 225 3.0 8.0 0.00 0.28 0.28 92 1010.5
20260506212205 44 224 3.0 8.0 0.00 0.28 0.28 93 1010.4
20260506211704 44 248 2.0 7.0 0.00 0.28 0.28 94 1010.4
20260506211205 44 264 0.0 3.0 0.00 0.28 0.28 94 1010.4
20260506210205 44 264 1.0 4.0 0.00 0.28 0.28 94 1010.3
20260506205705 44 232 2.0 4.0 0.00 0.28 0.28 94 1010.3
20260506205205 44 269 2.0 4.0 0.00 0.28 0.28 94 1010.3
20260506204707 45 295 2.0 3.0 0.00 0.28 0.28 94 1010.2
20260506204205 45 310 1.0 3.0 0.00 0.28 0.28 94 1010.1
20260506202706 45 289 2.0 2.0 0.00 0.29 0.28 94 1010.2
20260506202205 45 271 1.0 3.0 0.00 0.29 0.28 94 1010.2
20260506201705 45 280 1.0 3.0 0.00 0.29 0.28 94 1010.2
20260506201205 45 271 1.0 3.0 0.00 0.29 0.28 94 1010.2
20260506200705 45 278 1.0 3.0 0.00 0.29 0.28 94 1010.2
20260506200205 45 236 1.0 3.0 0.00 0.29 0.28 94 1010.1
20260506195705 45 281 1.0 3.0 0.01 0.29 0.28 94 1010.1
20260506194706 45 262 1.0 4.0 0.01 0.29 0.28 94 1010.0
20260506194205 45 271 1.0 4.0 0.01 0.29 0.28 94 1010.0
20260506193705 45 290 1.0 2.0 0.01 0.29 0.28 94 1010.0
20260506193205 45 283 1.0 2.0 0.01 0.29 0.28 94 1010.0
20260506192707 45 271 1.0 2.0 0.01 0.29 0.28 94 1010.0
20260506192205 45 304 1.0 5.0 0.01 0.29 0.28 94 1009.7
20260506191704 45 298 1.0 5.0 0.01 0.29 0.28 94 1009.7
20260506191205 45 280 1.0 5.0 0.01 0.29 0.28 94 1009.7
20260506190705 45 271 1.0 3.0 0.01 0.29 0.28 94 1009.6
20260506190205 45 254 1.0 3.0 0.01 0.29 0.28 94 1009.6
20260506185705 45 277 1.0 5.0 0.00 0.28 0.28 93 1009.5
20260506184205 45 257 1.0 4.0 0.01 0.28 0.28 93 1009.4
20260506183705 45 227 1.0 2.0 0.01 0.29 0.28 93 1009.4
20260506182705 45 245 1.0 3.0 0.02 0.31 0.28 92 1009.3
20260506181705 46 250 3.0 6.0 0.02 0.31 0.28 91 1009.2
20260506181224 46 250 3.0 6.0 0.02 0.33 0.28 91 1009.2
20260506180706 46 237 2.0 5.0 0.02 0.34 0.28 91 1009.1
20260506180205 46 245 3.0 5.0 0.02 0.34 0.28 91 1009.1
20260506175705 46 221 3.0 5.0 0.01 0.33 0.27 91 1009.0
20260506174705 46 220 2.0 5.0 0.01 0.33 0.27 91 1008.9
20260506174205 46 240 2.0 7.0 0.02 0.33 0.27 91 1008.9
20260506172708 46 228 3.0 8.0 0.02 0.32 0.26 91 1008.7
20260506172205 46 261 3.0 8.0 0.02 0.32 0.26 91 1008.6
20260506171205 46 266 3.0 8.0 0.02 0.32 0.26 91 1008.4
20260506170706 46 243 3.0 8.0 0.02 0.32 0.26 91 1008.3
20260506165205 46 230 3.0 6.0 0.03 0.32 0.26 91 1008.3
20260506164706 46 221 2.0 6.0 0.03 0.32 0.26 91 1008.3
20260506164205 46 247 2.0 6.0 0.03 0.31 0.25 91 1008.3
20260506163705 46 221 2.0 7.0 0.04 0.31 0.25 91 1008.3
20260506162705 46 247 2.0 7.0 0.03 0.31 0.24 91 1008.3
20260506162216 46 228 2.0 4.0 0.04 0.31 0.24 91 1008.4
20260506161706 46 236 2.0 4.0 0.04 0.31 0.24 91 1008.3
20260506160705 46 249 2.0 7.0 0.04 0.30 0.24 91 1008.3
20260506160226 46 248 2.0 7.0 0.04 0.30 0.24 90 1008.3
20260506155705 46 230 2.0 4.0 0.03 0.29 0.23 90 1008.3
20260506155205 46 287 2.0 4.0 0.04 0.29 0.23 90 1008.4
20260506154706 46 263 2.0 4.0 0.03 0.28 0.22 90 1008.3
20260506154205 47 300 2.0 4.0 0.03 0.28 0.22 90 1008.3
20260506153704 47 262 2.0 4.0 0.03 0.28 0.21 89 1008.3
20260506153205 47 248 2.0 3.0 0.03 0.28 0.21 90 1008.3
20260506152705 47 283 1.0 3.0 0.03 0.28 0.21 90 1008.3
20260506152205 47 280 1.0 3.0 0.02 0.27 0.20 90 1008.2
20260506151705 47 299 1.0 3.0 0.02 0.27 0.20 90 1008.2
20260506151205 47 229 1.0 8.0 0.02 0.28 0.20 90 1008.2
20260506150705 47 307 2.0 9.0 0.02 0.30 0.20 90 1008.1
20260506150205 47 198 3.0 9.0 0.02 0.34 0.20 88 1008.2
20260506145705 47 288 3.0 9.0 0.02 0.34 0.20 88 1008.1
20260506145205 48 255 2.0 5.0 0.02 0.33 0.19 89 1008.1
20260506143205 48 256 3.0 5.0 0.01 0.32 0.18 88 1008.0
20260506142705 48 240 2.0 4.0 0.01 0.32 0.18 90 1008.0
20260506141705 48 269 2.0 5.0 0.02 0.32 0.18 89 1007.9
20260506141205 48 274 2.0 4.0 0.02 0.32 0.18 89 1007.9
20260506140205 48 274 1.0 6.0 0.01 0.31 0.17 90 1007.8